Weather History for KPIE - March, 2013

Change the Weather History Date:

Sunday, March 17, 2013

  Actual Average Record
Temperature  
Mean Temperature 62 °F -  
Max Temperature 77 °F 75 °F 87 °F (2002)
Min Temperature 50 °F 60 °F 46 °F (1954)
Degree Days  
Heating Degree Days 2    
Growing Degree Days 12 (Base 50)    
Moisture  
Dew Point 54 °F    
Average Humidity 76    
Maximum Humidity 94    
Minimum Humidity 50    
Precipitation  
Precipitation 0.01 in - - ()
Sea Level Pressure  
Sea Level Pressure 30.08 in    
Wind  
Wind Speed 4 mph (SSE)    
Max Wind Speed 16 mph    
Max Gust Speed 20 mph    
Visibility 6 miles    
Events Fog    
Averages and records for this station are not official NWS values.
T = Trace of Precipitation, MM = Missing Value Source: NWS Daily Summary

Daily Weather History Graph

Daily Weather History Graph

Search for Another Location

Airport or City:

Trip Planner

Search our weather history database for the weather conditions in past years. The results will help you decide how hot, cold, wet, or windy it might be!

Date:

Astronomy

Mar. 17, 2013 Rise Set
Actual Time 7:37 AM EDT 7:40 PM EDT
Civil Twilight 7:14 AM EDT 8:03 PM EDT
Nautical Twilight 6:47 AM EDT 8:31 PM EDT
Astronomical Twilight 6:19 AM EDT 8:58 PM EDT
Moon 11:17 AM EDT (3/17) 12:20 AM EDT (3/17)
Length of Visible Light 12h 49m
Length of Day
12h 02m
Waxing Crescent, 31% of the Moon is Illuminated
Mar 17
Waxing Crescent
Mar 19
First Quarter
Mar 27
Full
Apr 3
Last Quarter
Apr 10
New

Hourly Weather History & Observations

Time (EDT) Temp. Dew Point Humidity Pressure Visibility Wind Dir Wind Speed Gust Speed Precip Events Conditions
12:53 AM 55.9 °F 53.1 °F 90% 30.12 in 3.0 mi Calm Calm - N/A   Clear
1:53 AM 55.0 °F 52.0 °F 89% 30.11 in 4.0 mi Calm Calm - N/A   Clear
2:25 AM 53.6 °F 51.8 °F 94% 30.10 in 1.0 mi South 3.5 mph - N/A   Mist
2:32 AM 53.6 °F 51.8 °F 94% 30.10 in 0.2 mi South 3.5 mph - N/A Fog Fog
2:53 AM 53.1 °F 51.1 °F 93% 30.10 in 0.2 mi Calm Calm - N/A Fog Fog
3:27 AM 50.0 °F 48.2 °F 94% 30.09 in 0.5 mi SSE 4.6 mph - N/A Fog Fog
3:53 AM 52.0 °F 50.0 °F 93% 30.09 in 2.0 mi SSE 5.8 mph - N/A   Clear
4:03 AM 53.6 °F 51.8 °F 94% 30.08 in 4.0 mi SSE 5.8 mph - N/A   Clear
4:37 AM 55.4 °F 51.8 °F 88% 30.07 in 2.0 mi Calm Calm - N/A   Clear
4:45 AM 55.4 °F 53.6 °F 94% 30.07 in 1.5 mi Calm Calm - N/A   Clear
4:53 AM 55.0 °F 53.1 °F 93% 30.07 in 0.8 mi Calm Calm - N/A   Clear
5:22 AM 53.6 °F 51.8 °F 94% 30.08 in 2.0 mi SSE 3.5 mph - N/A   Clear
5:53 AM 55.9 °F 54.0 °F 93% 30.09 in 5.0 mi SSE 4.6 mph - N/A   Clear
6:41 AM - - N/A% 30.10 in 1.8 mi Calm Calm - N/A   Clear
6:53 AM - - N/A% 30.11 in 2.0 mi ESE 3.5 mph - N/A   Clear
7:01 AM - - N/A% 30.10 in 4.0 mi ESE 3.5 mph - N/A   Haze
7:53 AM - - N/A% 30.12 in 6.0 mi ESE 3.5 mph - N/A   Haze
8:53 AM - - N/A% 30.14 in 9.0 mi SE 4.6 mph - N/A   Clear
9:53 AM 64.9 °F 54.0 °F 68% 30.13 in 10.0 mi ESE 9.2 mph - N/A   Clear
10:53 AM 68.0 °F 55.0 °F 63% 30.15 in 10.0 mi SSE 4.6 mph - N/A   Partly Cloudy
11:53 AM 73.0 °F 54.0 °F 51% 30.14 in 10.0 mi Variable 6.9 mph - N/A   Partly Cloudy
12:53 PM 73.9 °F 55.0 °F 52% 30.13 in 10.0 mi ESE 9.2 mph - N/A   Partly Cloudy
1:53 PM 73.9 °F 55.0 °F 52% 30.10 in 10.0 mi SE 6.9 mph - N/A   Mostly Cloudy
2:53 PM 75.0 °F 55.0 °F 50% 30.07 in 10.0 mi SSW 16.1 mph 19.6 mph N/A   Partly Cloudy
3:53 PM 73.9 °F 55.9 °F 53% 30.04 in 10.0 mi SSW 12.7 mph - N/A   Clear
4:53 PM 71.1 °F 57.0 °F 61% 30.04 in 10.0 mi South 12.7 mph - 0.00 in   Mostly Cloudy
5:53 PM 71.1 °F 59.0 °F 66% 30.03 in 10.0 mi South 8.1 mph - N/A   Overcast
6:53 PM 71.1 °F 57.0 °F 61% 30.03 in 10.0 mi South 6.9 mph - N/A   Mostly Cloudy
7:53 PM 70.0 °F 57.9 °F 65% 30.02 in 10.0 mi Calm Calm - 0.01 in   Overcast
8:53 PM 68.0 °F 57.9 °F 70% 30.04 in 10.0 mi SSW 5.8 mph - N/A   Overcast
9:53 PM 69.1 °F 57.0 °F 65% 30.05 in 10.0 mi SSW 6.9 mph - N/A   Overcast
10:53 PM 66.9 °F 57.0 °F 70% 30.05 in 10.0 mi SSE 4.6 mph - N/A   Scattered Clouds
11:53 PM 64.9 °F 57.0 °F 75% 30.04 in 10.0 mi SE 6.9 mph - N/A   Scattered Clouds